Syracuse, NY

5:45 PM EDT on October 15, 2019 (GMT -0400)
Syracuse Hancock International

Weather History for KSYR - June, 2019

Change the Weather History Date:

Tuesday, June 11, 2019

  Actual Average Record
Temperature  
Mean Temperature 62 °F 66 °F  
Max Temperature 70 °F 77 °F 95 °F (1947)
Min Temperature 53 °F 55 °F 38 °F (1972)
Degree Days  
Heating Degree Days 3 2  
Month to date heating degree days 32 36  
Since 1 June heating degree days 32 36  
Since 1 July heating degree days 6756 6626  
Cooling Degree Days 0 3  
Month to date cooling degree days 9 27  
Year to date cooling degree days 22 57  
Since 1 June cooling degree days 9 27  
Growing Degree Days 14 (Base 50)    
Moisture  
Dew Point 50 °F    
Average Humidity 63    
Maximum Humidity 86    
Minimum Humidity 39    
Precipitation  
Precipitation 0.01 in 0.11 in 4.79 in (1922)
Month to date precipitation 2.24 1.20  
Year to date precipitation 19.89 15.13  
Snow  
Snow 0.00 in 0.00 in 0.00 in (2002)
Month to date snowfall 0.0 0.0  
Since 1 June snowfall 0.0 0.0  
Since 1 July snowfall 115.0 123.8  
Snow Depth 0.00 in    
Sea Level Pressure  
Sea Level Pressure 30.00 in    
Wind  
Wind Speed 13 mph (West)    
Max Wind Speed 24 mph    
Max Gust Speed 33 mph    
Visibility 10 miles    
Events Rain    
T = Trace of Precipitation, MM = Missing Value Source: NWS Daily Summary

Daily Weather History Graph

Daily Weather History Graph

Search for Another Location

Airport or City:

Astronomy

Jun. 11, 2019 Rise Set
Actual Time 5:24 AM EDT 8:43 PM EDT
Civil Twilight 4:49 AM EDT 9:19 PM EDT
Nautical Twilight 4:03 AM EDT 10:04 PM EDT
Astronomical Twilight 3:07 AM EDT 11:01 PM EDT
Moon 2:30 PM EDT (6/11) 2:18 AM EDT (6/11)
Length of Visible Light 16h 29m
Length of Day
15h 19m
Waxing Gibbous, 66% of the Moon is Illuminated
Jun 11
Waxing Gibbous
Jun 17
Full
Jun 25
Last Quarter
Jul 2
New
Jul 9
First Quarter

Hourly Weather History & Observations

Time (EDT) Temp. Dew Point Humidity Pressure Visibility Wind Dir Wind Speed Gust Speed Precip Events Conditions
12:04 AM 68.0 °F 64.9 °F 90% 29.77 in 10.0 mi SSW 4.6 mph - 0.00 in Rain Light Rain
12:54 AM 66.9 °F 64.0 °F 90% 29.79 in 5.0 mi WSW 27.6 mph 34.5 mph 0.01 in   Light Drizzle
1:01 AM 63.0 °F 60.1 °F 90% 29.82 in 3.0 mi WNW 24.2 mph 39.1 mph 0.00 in   Light Drizzle
1:08 AM 61.0 °F 57.9 °F 90% 29.83 in 4.0 mi WNW 18.4 mph 31.1 mph 0.01 in Rain Light Rain
1:54 AM 60.1 °F 57.0 °F 90% 29.84 in 10.0 mi WSW 18.4 mph 25.3 mph 0.01 in Rain Light Rain
2:54 AM 57.9 °F 54.0 °F 87% 29.87 in 10.0 mi WSW 21.9 mph 33.4 mph 0.00 in   Light Drizzle
3:54 AM 57.9 °F 54.0 °F 87% 29.89 in 10.0 mi West 13.8 mph - 0.00 in   Light Drizzle
4:54 AM 57.9 °F 53.1 °F 84% 29.92 in 10.0 mi West 10.4 mph 20.7 mph 0.00 in Rain Light Rain
5:12 AM 57.9 °F 53.1 °F 84% 29.93 in 10.0 mi West 11.5 mph - 0.00 in Rain Light Rain
5:54 AM 57.9 °F 52.0 °F 81% 29.94 in 10.0 mi West 13.8 mph 23.0 mph 0.00 in   Overcast
6:54 AM 57.0 °F 52.0 °F 83% 29.97 in 8.0 mi West 16.1 mph 26.5 mph 0.00 in   Light Drizzle
7:01 AM 57.0 °F 51.1 °F 81% 29.98 in 10.0 mi West 18.4 mph 25.3 mph 0.00 in   Light Drizzle
7:54 AM 57.9 °F 50.0 °F 75% 29.99 in 10.0 mi West 15.0 mph 24.2 mph 0.00 in   Overcast
8:34 AM 57.0 °F 50.0 °F 77% 30.02 in 10.0 mi West 12.7 mph 21.9 mph 0.00 in   Light Drizzle
8:54 AM 57.9 °F 50.0 °F 75% 30.02 in 10.0 mi West 12.7 mph - 0.00 in   Overcast
9:18 AM 57.9 °F 50.0 °F 75% 30.04 in 10.0 mi West 16.1 mph 23.0 mph N/A   Overcast
9:54 AM 60.1 °F 50.0 °F 69% 30.04 in 10.0 mi WNW 15.0 mph - N/A   Mostly Cloudy
10:54 AM 61.0 °F 48.9 °F 64% 30.06 in 10.0 mi WNW 15.0 mph 26.5 mph N/A   Overcast
11:54 AM 63.0 °F 48.9 °F 60% 30.06 in 10.0 mi West 15.0 mph 26.5 mph N/A   Mostly Cloudy
12:54 PM 64.9 °F 48.9 °F 56% 30.06 in 10.0 mi NW 16.1 mph 24.2 mph N/A   Scattered Clouds
1:54 PM 66.9 °F 48.0 °F 51% 30.07 in 10.0 mi WNW 18.4 mph 25.3 mph N/A   Partly Cloudy
2:54 PM 68.0 °F 48.0 °F 49% 30.08 in 10.0 mi WNW 19.6 mph 27.6 mph N/A   Partly Cloudy
3:54 PM 69.1 °F 46.0 °F 44% 30.08 in 10.0 mi WNW 17.3 mph 27.6 mph N/A   Partly Cloudy
4:54 PM 69.1 °F 46.0 °F 44% 30.09 in 10.0 mi WNW 18.4 mph 29.9 mph N/A   Partly Cloudy
5:54 PM 69.1 °F 45.0 °F 42% 30.08 in 10.0 mi WNW 16.1 mph - N/A   Partly Cloudy
6:54 PM 68.0 °F 43.0 °F 40% 30.09 in 10.0 mi WNW 12.7 mph - N/A   Partly Cloudy
7:54 PM 66.0 °F 42.1 °F 42% 30.09 in 10.0 mi West 12.7 mph - N/A   Partly Cloudy
8:54 PM 63.0 °F 43.0 °F 48% 30.09 in 10.0 mi West 6.9 mph - N/A   Partly Cloudy
9:54 PM 60.1 °F 44.1 °F 55% 30.09 in 10.0 mi West 5.8 mph - N/A   Partly Cloudy
10:54 PM 57.0 °F 45.0 °F 64% 30.09 in 10.0 mi WSW 4.6 mph - N/A   Clear
11:54 PM 55.0 °F 46.0 °F 72% 30.11 in 10.0 mi West 5.8 mph - N/A   Partly Cloudy